Time,TemperatureF,DewpointF,PressureIn,WindDirection,WindDirectionDegrees,WindSpeedMPH,WindSpeedGustMPH,Humidity,HourlyPrecipIn,Conditions,Clouds,dailyrainin,SoftwareType,DateUTC
2013-10-13 00:03:00,51.1,42.1,30.25,North,0,0.0,0.0,72,0.00,,,0.00,WUHU21623XXSP,2013-10-13 05:03:00,
2013-10-13 00:08:00,51.1,42.4,30.24,North,0,0.0,0.0,72,0.00,,,0.00,WUHU21623XXSP,2013-10-13 05:08:00,
2013-10-13 00:13:00,50.9,42.2,30.25,North,0,0.0,0.0,72,0.00,,,0.00,WUHU21623XXSP,2013-10-13 05:13:00,
2013-10-13 00:18:00,50.7,42.4,30.25,North,0,0.0,0.0,74,0.00,,,0.00,WUHU21623XXSP,2013-10-13 05:18:00,
2013-10-13 00:23:00,50.5,42.5,30.25,North,0,0.0,0.0,74,0.00,,,0.00,WUHU21623XXSP,2013-10-13 05:23:00,
2013-10-13 00:28:00,50.4,42.5,30.25,North,0,0.0,0.0,74,0.00,,,0.00,WUHU21623XXSP,2013-10-13 05:28:00,
2013-10-13 00:33:00,50.4,42.7,30.26,North,0,0.0,0.0,75,0.00,,,0.00,WUHU21623XXSP,2013-10-13 05:33:00,
2013-10-13 00:38:00,50.2,42.5,30.26,North,0,0.0,0.0,75,0.00,,,0.00,WUHU21623XXSP,2013-10-13 05:38:00,
2013-10-13 00:43:00,50.0,42.5,30.26,North,0,0.0,0.0,75,0.00,,,0.00,WUHU21623XXSP,2013-10-13 05:43:00,
2013-10-13 00:48:00,49.8,42.2,30.26,North,0,0.0,0.0,75,0.00,,,0.00,WUHU21623XXSP,2013-10-13 05:48:00,
2013-10-13 00:53:00,49.8,42.2,30.26,North,0,0.0,0.0,75,0.00,,,0.00,WUHU21623XXSP,2013-10-13 05:53:00,
2013-10-13 00:58:00,49.8,42.2,30.26,North,0,0.0,0.0,76,0.00,,,0.00,WUHU21623XXSP,2013-10-13 05:58:00,
2013-10-13 01:03:00,49.8,42.5,30.26,North,0,0.0,0.0,76,0.00,,,0.00,WUHU21623XXSP,2013-10-13 06:03:00,
2013-10-13 01:08:00,49.6,42.3,30.26,North,0,0.0,0.0,76,0.00,,,0.00,WUHU21623XXSP,2013-10-13 06:08:00,
2013-10-13 01:13:00,49.3,42.0,30.27,North,0,0.0,0.0,76,0.00,,,0.00,WUHU21623XXSP,2013-10-13 06:13:00,
2013-10-13 01:18:00,49.3,42.0,30.27,North,0,0.0,0.0,76,0.00,,,0.00,WUHU21623XXSP,2013-10-13 06:18:00,
2013-10-13 01:23:00,49.1,42.1,30.28,North,0,0.0,0.0,76,0.00,,,0.00,WUHU21623XXSP,2013-10-13 06:23:00,
2013-10-13 01:28:00,48.9,42.0,30.28,North,0,0.0,0.0,77,0.00,,,0.00,WUHU21623XXSP,2013-10-13 06:28:00,
2013-10-13 01:33:00,48.7,42.0,30.28,North,0,0.0,0.0,77,0.00,,,0.00,WUHU21623XXSP,2013-10-13 06:33:00,
2013-10-13 01:38:00,48.7,41.8,30.28,North,0,0.0,0.0,77,0.00,,,0.00,WUHU21623XXSP,2013-10-13 06:38:00,
2013-10-13 01:43:00,48.6,41.8,30.28,North,0,0.0,0.0,77,0.00,,,0.00,WUHU21623XXSP,2013-10-13 06:43:00,
2013-10-13 01:48:00,48.6,41.6,30.29,North,0,0.0,0.0,77,0.00,,,0.00,WUHU21623XXSP,2013-10-13 06:48:00,
2013-10-13 01:53:00,48.6,41.6,30.29,North,0,0.0,0.0,77,0.00,,,0.00,WUHU21623XXSP,2013-10-13 06:53:00,
2013-10-13 01:58:00,48.4,41.4,30.29,North,0,0.0,0.0,77,0.00,,,0.00,WUHU21623XXSP,2013-10-13 06:58:00,
2013-10-13 02:03:00,48.4,41.4,30.29,North,0,0.0,0.0,77,0.00,,,0.00,WUHU21623XXSP,2013-10-13 07:03:00,
2013-10-13 02:08:00,48.4,41.4,30.30,North,0,0.0,0.0,77,0.00,,,0.00,WUHU21623XXSP,2013-10-13 07:08:00,
2013-10-13 09:50:00,56.5,47.5,30.41,North,0,0.0,0.0,72,0.00,,,0.00,WUHU21623XXSP,2013-10-13 14:50:00,
2013-10-13 09:55:00,57.0,46.9,30.42,North,0,0.0,0.0,69,0.00,,,0.00,WUHU21623XXSP,2013-10-13 14:55:00,
2013-10-13 10:00:00,57.7,46.8,30.42,North,0,0.0,0.0,67,0.00,,,0.00,WUHU21623XXSP,2013-10-13 15:00:00,
2013-10-13 10:05:00,58.3,46.5,30.42,North,0,0.0,0.0,65,0.00,,,0.00,WUHU21623XXSP,2013-10-13 15:05:00,
2013-10-13 10:10:00,58.8,46.6,30.42,North,0,0.0,0.0,64,0.00,,,0.00,WUHU21623XXSP,2013-10-13 15:10:00,
2013-10-13 10:15:00,59.4,46.3,30.41,North,0,0.0,0.0,62,0.00,,,0.00,WUHU21623XXSP,2013-10-13 15:15:00,
2013-10-13 10:20:00,59.9,46.0,30.41,North,0,0.0,0.0,60,0.00,,,0.00,WUHU21623XXSP,2013-10-13 15:20:00,
2013-10-13 10:26:00,60.4,46.6,30.41,North,0,0.0,0.0,60,0.00,,,0.00,WUHU21623XXSP,2013-10-13 15:26:00,
2013-10-13 10:31:00,61.0,46.1,30.41,North,0,0.0,0.0,58,0.00,,,0.00,WUHU21623XXSP,2013-10-13 15:31:00,
2013-10-13 10:36:00,61.2,45.8,30.41,North,0,0.0,0.0,57,0.00,,,0.00,WUHU21623XXSP,2013-10-13 15:36:00,
2013-10-13 10:41:00,61.5,45.2,30.41,North,0,0.0,0.0,55,0.00,,,0.00,WUHU21623XXSP,2013-10-13 15:41:00,
2013-10-13 10:46:00,62.2,44.8,30.42,North,0,0.0,0.0,53,0.00,,,0.00,WUHU21623XXSP,2013-10-13 15:46:00,
2013-10-13 10:51:00,62.4,44.5,30.42,North,0,0.0,0.0,52,0.00,,,0.00,WUHU21623XXSP,2013-10-13 15:51:00,
2013-10-13 10:56:00,63.0,44.5,30.42,North,0,0.0,0.0,51,0.00,,,0.00,WUHU21623XXSP,2013-10-13 15:56:00,
2013-10-13 11:01:00,63.5,44.5,30.42,North,0,0.0,0.0,50,0.00,,,0.00,WUHU21623XXSP,2013-10-13 16:01:00,
2013-10-13 11:06:00,64.0,45.0,30.42,North,0,0.0,0.0,50,0.00,,,0.00,WUHU21623XXSP,2013-10-13 16:06:00,
2013-10-13 11:11:00,64.0,43.3,30.42,North,0,0.0,0.0,47,0.00,,,0.00,WUHU21623XXSP,2013-10-13 16:11:00,
2013-10-13 11:16:00,64.4,43.6,30.42,North,0,0.0,0.0,47,0.00,,,0.00,WUHU21623XXSP,2013-10-13 16:16:00,
2013-10-13 11:21:00,64.8,42.8,30.42,North,0,0.0,0.0,45,0.00,,,0.00,WUHU21623XXSP,2013-10-13 16:21:00,
2013-10-13 11:26:00,65.1,43.1,30.42,North,0,0.0,0.0,45,0.00,,,0.00,WUHU21623XXSP,2013-10-13 16:26:00,
2013-10-13 11:31:00,65.1,43.1,30.42,North,0,0.0,0.0,45,0.00,,,0.00,WUHU21623XXSP,2013-10-13 16:31:00,
2013-10-13 11:36:00,65.7,43.6,30.42,North,0,0.0,0.0,45,0.00,,,0.00,WUHU21623XXSP,2013-10-13 16:36:00,
2013-10-13 11:41:00,66.0,43.4,30.42,North,0,0.0,0.0,44,0.00,,,0.00,WUHU21623XXSP,2013-10-13 16:41:00,
2013-10-13 11:46:00,66.0,42.8,30.41,North,0,0.0,0.0,43,0.00,,,0.00,WUHU21623XXSP,2013-10-13 16:46:00,
2013-10-13 11:51:00,66.6,43.3,30.41,North,0,0.0,0.0,43,0.00,,,0.00,WUHU21623XXSP,2013-10-13 16:51:00,
2013-10-13 11:56:00,66.9,41.8,30.41,North,0,0.0,0.0,40,0.00,,,0.00,WUHU21623XXSP,2013-10-13 16:56:00,
2013-10-13 12:01:00,67.3,42.6,30.41,North,0,0.0,0.0,41,0.00,,,0.00,WUHU21623XXSP,2013-10-13 17:01:00,
2013-10-13 12:06:00,67.6,42.2,30.41,North,0,0.0,0.0,41,0.00,,,0.00,WUHU21623XXSP,2013-10-13 17:06:00,
2013-10-13 12:11:00,67.8,42.6,30.40,North,0,0.0,0.0,39,0.00,,,0.00,WUHU21623XXSP,2013-10-13 17:11:00,
2013-10-13 12:16:00,67.8,41.9,30.40,North,0,0.0,0.0,39,0.00,,,0.00,WUHU21623XXSP,2013-10-13 17:16:00,
2013-10-13 12:21:00,67.8,41.2,30.40,North,0,0.0,0.0,38,0.00,,,0.00,WUHU21623XXSP,2013-10-13 17:21:00,
2013-10-13 12:26:00,68.2,40.4,30.40,North,0,0.0,0.0,38,0.00,,,0.00,WUHU21623XXSP,2013-10-13 17:26:00,
2013-10-13 12:31:00,68.5,41.5,30.40,North,0,0.0,0.0,38,0.00,,,0.00,WUHU21623XXSP,2013-10-13 17:31:00,
2013-10-13 12:36:00,68.7,41.8,30.39,North,0,0.0,0.0,38,0.00,,,0.00,WUHU21623XXSP,2013-10-13 17:36:00,
2013-10-13 12:41:00,68.7,41.4,30.39,North,0,0.0,0.0,37,0.00,,,0.00,WUHU21623XXSP,2013-10-13 17:41:00,
2013-10-13 12:46:00,68.9,41.4,30.39,North,0,0.0,0.0,37,0.00,,,0.00,WUHU21623XXSP,2013-10-13 17:46:00,
2013-10-13 12:51:00,69.1,40.8,30.39,North,0,0.0,0.0,36,0.00,,,0.00,WUHU21623XXSP,2013-10-13 17:51:00,
2013-10-13 12:56:00,69.1,40.8,30.39,North,0,0.0,0.0,36,0.00,,,0.00,WUHU21623XXSP,2013-10-13 17:56:00,
2013-10-13 13:01:00,69.3,40.8,30.39,North,0,0.0,0.0,36,0.00,,,0.00,WUHU21623XXSP,2013-10-13 18:01:00,
2013-10-13 13:06:00,69.4,41.1,30.39,North,0,0.0,0.0,36,0.00,,,0.00,WUHU21623XXSP,2013-10-13 18:06:00,
2013-10-13 13:11:00,69.3,39.5,30.39,North,0,0.0,0.0,34,0.00,,,0.00,WUHU21623XXSP,2013-10-13 18:11:00,
2013-10-13 13:16:00,69.1,39.3,30.39,North,0,0.0,0.0,34,0.00,,,0.00,WUHU21623XXSP,2013-10-13 18:16:00,
2013-10-13 13:21:00,68.9,39.2,30.39,North,0,0.0,0.0,34,0.00,,,0.00,WUHU21623XXSP,2013-10-13 18:21:00,
2013-10-13 13:26:00,69.4,40.1,30.39,North,0,0.0,0.0,35,0.00,,,0.00,WUHU21623XXSP,2013-10-13 18:26:00,
2013-10-13 13:31:00,69.6,40.6,30.38,North,0,0.0,0.0,35,0.00,,,0.00,WUHU21623XXSP,2013-10-13 18:31:00,
2013-10-13 13:36:00,69.6,40.6,30.38,North,0,0.0,0.0,35,0.00,,,0.00,WUHU21623XXSP,2013-10-13 18:36:00,
2013-10-13 13:41:00,69.8,40.7,30.38,North,0,0.0,0.0,35,0.00,,,0.00,WUHU21623XXSP,2013-10-13 18:41:00,
2013-10-13 13:46:00,70.0,40.9,30.38,North,0,0.0,0.0,35,0.00,,,0.00,WUHU21623XXSP,2013-10-13 18:46:00,
2013-10-13 13:51:00,70.0,40.2,30.38,North,0,0.0,0.0,34,0.00,,,0.00,WUHU21623XXSP,2013-10-13 18:51:00,
2013-10-13 13:56:00,70.0,40.2,30.37,North,0,0.0,0.0,34,0.00,,,0.00,WUHU21623XXSP,2013-10-13 18:56:00,
2013-10-13 14:01:00,70.0,40.2,30.37,North,0,0.0,0.0,34,0.00,,,0.00,WUHU21623XXSP,2013-10-13 19:01:00,
2013-10-13 14:06:00,69.6,39.8,30.37,North,0,0.0,0.0,34,0.00,,,0.00,WUHU21623XXSP,2013-10-13 19:06:00,
2013-10-13 14:11:00,69.8,40.0,30.37,North,0,0.0,0.0,34,0.00,,,0.00,WUHU21623XXSP,2013-10-13 19:11:00,
2013-10-13 14:16:00,70.0,40.2,30.37,North,0,0.0,0.0,34,0.00,,,0.00,WUHU21623XXSP,2013-10-13 19:16:00,
2013-10-13 14:21:00,69.8,40.0,30.36,North,0,0.0,0.0,34,0.00,,,0.00,WUHU21623XXSP,2013-10-13 19:21:00,
2013-10-13 14:26:00,70.0,40.2,30.36,North,0,0.0,0.0,34,0.00,,,0.00,WUHU21623XXSP,2013-10-13 19:26:00,
2013-10-13 14:31:00,70.0,39.4,30.36,North,0,0.0,0.0,33,0.00,,,0.00,WUHU21623XXSP,2013-10-13 19:31:00,
2013-10-13 14:36:00,70.0,39.4,30.36,North,0,0.0,0.0,33,0.00,,,0.00,WUHU21623XXSP,2013-10-13 19:36:00,
2013-10-13 14:41:00,70.2,39.6,30.36,North,0,0.0,0.0,33,0.00,,,0.00,WUHU21623XXSP,2013-10-13 19:41:00,
2013-10-13 14:46:00,70.2,38.8,30.36,North,0,0.0,0.0,32,0.00,,,0.00,WUHU21623XXSP,2013-10-13 19:46:00,
2013-10-13 14:51:00,70.2,39.6,30.35,North,0,0.0,0.0,33,0.00,,,0.00,WUHU21623XXSP,2013-10-13 19:51:00,
2013-10-13 14:56:00,70.2,38.8,30.35,North,0,0.0,0.0,32,0.00,,,0.00,WUHU21623XXSP,2013-10-13 19:56:00,
2013-10-13 15:01:00,70.2,38.8,30.35,North,0,0.0,0.0,33,0.00,,,0.00,WUHU21623XXSP,2013-10-13 20:01:00,
2013-10-13 15:06:00,70.2,38.8,30.35,North,0,0.0,0.0,32,0.00,,,0.00,WUHU21623XXSP,2013-10-13 20:06:00,
2013-10-13 15:11:00,70.3,39.0,30.34,North,0,0.0,0.0,32,0.00,,,0.00,WUHU21623XXSP,2013-10-13 20:11:00,
2013-10-13 15:16:00,70.3,39.7,30.35,North,0,0.0,0.0,33,0.00,,,0.00,WUHU21623XXSP,2013-10-13 20:16:00,
2013-10-13 15:21:00,70.3,39.7,30.34,North,0,0.0,0.0,33,0.00,,,0.00,WUHU21623XXSP,2013-10-13 20:21:00,
2013-10-13 15:26:00,70.3,39.7,30.34,North,0,0.0,0.0,33,0.00,,,0.00,WUHU21623XXSP,2013-10-13 20:26:00,
2013-10-13 15:31:00,70.5,39.9,30.34,North,0,0.0,0.0,33,0.00,,,0.00,WUHU21623XXSP,2013-10-13 20:31:00,
2013-10-13 15:36:00,70.5,39.9,30.34,North,0,0.0,0.0,33,0.00,,,0.00,WUHU21623XXSP,2013-10-13 20:36:00,
2013-10-13 15:41:00,70.3,39.7,30.33,North,0,0.0,0.0,33,0.00,,,0.00,WUHU21623XXSP,2013-10-13 20:41:00,
2013-10-13 15:46:00,70.3,39.7,30.33,North,0,0.0,0.0,33,0.00,,,0.00,WUHU21623XXSP,2013-10-13 20:46:00,
2013-10-13 15:51:00,70.3,39.7,30.33,North,0,0.0,0.0,33,0.00,,,0.00,WUHU21623XXSP,2013-10-13 20:51:00,
2013-10-13 15:56:00,70.2,39.6,30.33,North,0,0.0,0.0,33,0.00,,,0.00,WUHU21623XXSP,2013-10-13 20:56:00,
2013-10-13 16:01:00,70.2,38.8,30.33,North,0,0.0,0.0,32,0.00,,,0.00,WUHU21623XXSP,2013-10-13 21:01:00,
2013-10-13 16:06:00,70.2,39.6,30.33,North,0,0.0,0.0,33,0.00,,,0.00,WUHU21623XXSP,2013-10-13 21:06:00,
2013-10-13 16:11:00,70.3,39.7,30.33,North,0,0.0,0.0,33,0.00,,,0.00,WUHU21623XXSP,2013-10-13 21:11:00,
2013-10-13 16:16:00,70.3,39.7,30.33,North,0,0.0,0.0,33,0.00,,,0.00,WUHU21623XXSP,2013-10-13 21:16:00,
2013-10-13 16:21:00,70.2,39.6,30.33,North,0,0.0,0.0,33,0.00,,,0.00,WUHU21623XXSP,2013-10-13 21:21:00,
2013-10-13 16:26:00,70.2,39.6,30.33,North,0,0.0,0.0,33,0.00,,,0.00,WUHU21623XXSP,2013-10-13 21:26:00,
2013-10-13 16:31:00,70.2,39.6,30.33,North,0,0.0,0.0,33,0.00,,,0.00,WUHU21623XXSP,2013-10-13 21:31:00,
2013-10-13 16:36:00,70.0,39.4,30.33,North,0,0.0,0.0,33,0.00,,,0.00,WUHU21623XXSP,2013-10-13 21:36:00,
2013-10-13 16:41:00,70.0,39.4,30.33,North,0,0.0,0.0,33,0.00,,,0.00,WUHU21623XXSP,2013-10-13 21:41:00,
2013-10-13 16:46:00,70.0,40.2,30.32,North,0,0.0,0.0,34,0.00,,,0.00,WUHU21623XXSP,2013-10-13 21:46:00,
2013-10-13 16:51:00,70.0,40.2,30.32,North,0,0.0,0.0,34,0.00,,,0.00,WUHU21623XXSP,2013-10-13 21:51:00,
2013-10-13 16:56:00,69.6,39.8,30.33,North,0,0.0,0.0,34,0.00,,,0.00,WUHU21623XXSP,2013-10-13 21:56:00,
2013-10-13 17:01:00,69.6,39.8,30.32,North,0,0.0,0.0,34,0.00,,,0.00,WUHU21623XXSP,2013-10-13 22:01:00,
2013-10-13 17:06:00,69.6,39.8,30.33,North,0,0.0,0.0,34,0.00,,,0.00,WUHU21623XXSP,2013-10-13 22:06:00,
2013-10-13 17:11:00,69.4,39.7,30.33,North,0,0.0,0.0,34,0.00,,,0.00,WUHU21623XXSP,2013-10-13 22:11:00,
2013-10-13 17:16:00,69.3,39.5,30.33,North,0,0.0,0.0,34,0.00,,,0.00,WUHU21623XXSP,2013-10-13 22:16:00,
2013-10-13 17:21:00,69.1,39.3,30.33,North,0,0.0,0.0,34,0.00,,,0.00,WUHU21623XXSP,2013-10-13 22:21:00,
2013-10-13 17:26:00,68.9,39.3,30.33,North,0,0.0,0.0,34,0.00,,,0.00,WUHU21623XXSP,2013-10-13 22:26:00,
2013-10-13 17:31:00,68.7,39.2,30.32,North,0,0.0,0.0,34,0.00,,,0.00,WUHU21623XXSP,2013-10-13 22:31:00,
2013-10-13 17:36:00,68.5,39.6,30.33,North,0,0.0,0.0,35,0.00,,,0.00,WUHU21623XXSP,2013-10-13 22:36:00,
2013-10-13 17:41:00,68.2,39.4,30.32,North,0,0.0,0.0,35,0.00,,,0.00,WUHU21623XXSP,2013-10-13 22:41:00,
2013-10-13 17:46:00,67.8,38.9,30.32,North,0,0.0,0.0,35,0.00,,,0.00,WUHU21623XXSP,2013-10-13 22:46:00,
2013-10-13 17:51:00,67.6,38.8,30.33,North,0,0.0,0.0,36,0.00,,,0.00,WUHU21623XXSP,2013-10-13 22:51:00,
2013-10-13 17:56:00,67.1,39.1,30.32,North,0,0.0,0.0,36,0.00,,,0.00,WUHU21623XXSP,2013-10-13 22:56:00,
2013-10-13 18:01:00,66.7,38.9,30.32,North,0,0.0,0.0,36,0.00,,,0.00,WUHU21623XXSP,2013-10-13 23:01:00,
2013-10-13 18:06:00,66.0,39.6,30.32,North,0,0.0,0.0,38,0.00,,,0.00,WUHU21623XXSP,2013-10-13 23:06:00,
2013-10-13 18:11:00,65.7,39.3,30.32,North,0,0.0,0.0,38,0.00,,,0.00,WUHU21623XXSP,2013-10-13 23:11:00,
2013-10-13 18:16:00,65.3,38.9,30.32,North,0,0.0,0.0,38,0.00,,,0.00,WUHU21623XXSP,2013-10-13 23:16:00,
2013-10-13 18:21:00,64.6,39.0,30.32,North,0,0.0,0.0,39,0.00,,,0.00,WUHU21623XXSP,2013-10-13 23:21:00,
2013-10-13 18:26:00,64.2,38.7,30.32,North,0,0.0,0.0,39,0.00,,,0.00,WUHU21623XXSP,2013-10-13 23:26:00,
2013-10-13 18:31:00,63.7,38.9,30.32,North,0,0.0,0.0,40,0.00,,,0.00,WUHU21623XXSP,2013-10-13 23:31:00,
2013-10-13 18:36:00,63.1,39.0,30.32,North,0,0.0,0.0,41,0.00,,,0.00,WUHU21623XXSP,2013-10-13 23:36:00,
2013-10-13 18:41:00,62.8,39.3,30.32,North,0,0.0,0.0,42,0.00,,,0.00,WUHU21623XXSP,2013-10-13 23:41:00,
2013-10-13 18:46:00,62.4,38.9,30.33,North,0,0.0,0.0,42,0.00,,,0.00,WUHU21623XXSP,2013-10-13 23:46:00,
2013-10-13 18:51:00,61.7,39.0,30.33,North,0,0.0,0.0,43,0.00,,,0.00,WUHU21623XXSP,2013-10-13 23:51:00,
2013-10-13 18:56:00,61.3,39.1,30.33,North,0,0.0,0.0,44,0.00,,,0.00,WUHU21623XXSP,2013-10-13 23:56:00,
2013-10-13 19:01:00,61.0,38.9,30.33,North,0,0.0,0.0,44,0.00,,,0.00,WUHU21623XXSP,2013-10-14 00:01:00,
2013-10-13 19:06:00,60.4,39.0,30.33,North,0,0.0,0.0,46,0.00,,,0.00,WUHU21623XXSP,2013-10-14 00:06:00,
2013-10-13 19:11:00,59.9,39.0,30.33,North,0,0.0,0.0,46,0.00,,,0.00,WUHU21623XXSP,2013-10-14 00:11:00,
2013-10-13 19:16:00,59.5,39.2,30.33,North,0,0.0,0.0,47,0.00,,,0.00,WUHU21623XXSP,2013-10-14 00:16:00,
2013-10-13 19:21:00,58.8,39.1,30.33,North,0,0.0,0.0,48,0.00,,,0.00,WUHU21623XXSP,2013-10-14 00:21:00,
2013-10-13 19:26:00,58.6,39.1,30.34,North,0,0.0,0.0,48,0.00,,,0.00,WUHU21623XXSP,2013-10-14 00:26:00,
2013-10-13 19:31:00,58.1,39.1,30.34,North,0,0.0,0.0,49,0.00,,,0.00,WUHU21623XXSP,2013-10-14 00:31:00,
2013-10-13 19:36:00,57.7,38.3,30.34,North,0,0.0,0.0,49,0.00,,,0.00,WUHU21623XXSP,2013-10-14 00:36:00,
2013-10-13 19:41:00,57.4,39.0,30.34,North,0,0.0,0.0,50,0.00,,,0.00,WUHU21623XXSP,2013-10-14 00:41:00,
2013-10-13 19:46:00,57.0,39.1,30.34,North,0,0.0,0.0,51,0.00,,,0.00,WUHU21623XXSP,2013-10-14 00:46:00,
2013-10-13 19:51:00,56.5,39.1,30.35,North,0,0.0,0.0,52,0.00,,,0.00,WUHU21623XXSP,2013-10-14 00:51:00,
2013-10-13 19:56:00,55.9,38.7,30.35,North,0,0.0,0.0,52,0.00,,,0.00,WUHU21623XXSP,2013-10-14 00:56:00,
2013-10-13 20:01:00,55.8,38.5,30.35,North,0,0.0,0.0,53,0.00,,,0.00,WUHU21623XXSP,2013-10-14 01:01:00,
2013-10-13 20:06:00,55.2,39.2,30.35,North,0,0.0,0.0,55,0.00,,,0.00,WUHU21623XXSP,2013-10-14 01:06:00,
2013-10-13 20:11:00,55.0,39.5,30.35,North,0,0.0,0.0,56,0.00,,,0.00,WUHU21623XXSP,2013-10-14 01:11:00,
2013-10-13 20:16:00,54.7,39.2,30.35,North,0,0.0,0.0,56,0.00,,,0.00,WUHU21623XXSP,2013-10-14 01:16:00,
2013-10-13 20:21:00,54.3,39.3,30.35,North,0,0.0,0.0,57,0.00,,,0.00,WUHU21623XXSP,2013-10-14 01:21:00,
2013-10-13 20:26:00,54.0,39.5,30.34,North,0,0.0,0.0,58,0.00,,,0.00,WUHU21623XXSP,2013-10-14 01:26:00,
2013-10-13 20:31:00,53.6,39.2,30.34,North,0,0.0,0.0,58,0.00,,,0.00,WUHU21623XXSP,2013-10-14 01:31:00,
2013-10-13 20:36:00,53.2,39.7,30.34,North,0,0.0,0.0,60,0.00,,,0.00,WUHU21623XXSP,2013-10-14 01:36:00,
2013-10-13 20:41:00,53.1,39.7,30.35,North,0,0.0,0.0,60,0.00,,,0.00,WUHU21623XXSP,2013-10-14 01:41:00,
2013-10-13 20:46:00,52.9,39.8,30.34,North,0,0.0,0.0,61,0.00,,,0.00,WUHU21623XXSP,2013-10-14 01:46:00,
2013-10-13 20:51:00,52.7,40.0,30.34,North,0,0.0,0.0,62,0.00,,,0.00,WUHU21623XXSP,2013-10-14 01:51:00,
2013-10-13 20:56:00,52.5,40.2,30.34,North,0,0.0,0.0,63,0.00,,,0.00,WUHU21623XXSP,2013-10-14 01:56:00,
2013-10-13 21:01:00,52.5,40.2,30.34,North,0,0.0,0.0,63,0.00,,,0.00,WUHU21623XXSP,2013-10-14 02:01:00,
2013-10-13 21:06:00,52.3,40.1,30.34,North,0,0.0,0.0,63,0.00,,,0.00,WUHU21623XXSP,2013-10-14 02:06:00,
2013-10-13 21:11:00,52.3,40.1,30.34,North,0,0.0,0.0,63,0.00,,,0.00,WUHU21623XXSP,2013-10-14 02:11:00,
2013-10-13 21:16:00,52.2,40.1,30.34,North,0,0.0,0.0,64,0.00,,,0.00,WUHU21623XXSP,2013-10-14 02:16:00,
2013-10-13 21:21:00,52.2,40.3,30.34,North,0,0.0,0.0,64,0.00,,,0.00,WUHU21623XXSP,2013-10-14 02:21:00,
2013-10-13 21:26:00,52.0,39.7,30.34,North,0,0.0,0.0,64,0.00,,,0.00,WUHU21623XXSP,2013-10-14 02:26:00,
2013-10-13 21:31:00,51.8,40.0,30.35,North,0,0.0,0.0,64,0.00,,,0.00,WUHU21623XXSP,2013-10-14 02:31:00,
2013-10-13 21:36:00,51.6,40.2,30.35,North,0,0.0,0.0,65,0.00,,,0.00,WUHU21623XXSP,2013-10-14 02:36:00,
2013-10-13 21:41:00,51.6,40.2,30.35,North,0,0.0,0.0,65,0.00,,,0.00,WUHU21623XXSP,2013-10-14 02:41:00,
2013-10-13 21:46:00,51.6,39.8,30.35,North,0,0.0,0.0,64,0.00,,,0.00,WUHU21623XXSP,2013-10-14 02:46:00,
2013-10-13 21:51:00,51.6,39.8,30.34,North,0,0.0,0.0,64,0.00,,,0.00,WUHU21623XXSP,2013-10-14 02:51:00,
2013-10-13 21:56:00,51.6,40.2,30.35,North,0,0.0,0.0,65,0.00,,,0.00,WUHU21623XXSP,2013-10-14 02:56:00,
2013-10-13 22:01:00,51.6,40.2,30.35,North,0,0.0,0.0,65,0.00,,,0.00,WUHU21623XXSP,2013-10-14 03:01:00,
2013-10-13 22:07:00,51.6,40.2,30.35,North,0,0.0,0.0,65,0.00,,,0.00,WUHU21623XXSP,2013-10-14 03:07:00,
2013-10-13 22:12:00,51.6,40.2,30.35,North,0,0.0,0.0,64,0.00,,,0.00,WUHU21623XXSP,2013-10-14 03:12:00,
2013-10-13 22:17:00,51.4,40.0,30.35,North,0,0.0,0.0,65,0.00,,,0.00,WUHU21623XXSP,2013-10-14 03:17:00,
2013-10-13 22:22:00,51.4,40.0,30.36,North,0,0.0,0.0,65,0.00,,,0.00,WUHU21623XXSP,2013-10-14 03:22:00,
2013-10-13 22:27:00,51.3,40.3,30.36,North,0,0.0,0.0,66,0.00,,,0.00,WUHU21623XXSP,2013-10-14 03:27:00,
2013-10-13 22:32:00,51.1,40.1,30.36,North,0,0.0,0.0,66,0.00,,,0.00,WUHU21623XXSP,2013-10-14 03:32:00,
2013-10-13 22:37:00,50.9,39.5,30.36,North,0,0.0,0.0,65,0.00,,,0.00,WUHU21623XXSP,2013-10-14 03:37:00,
2013-10-13 22:42:00,50.7,39.3,30.36,North,0,0.0,0.0,65,0.00,,,0.00,WUHU21623XXSP,2013-10-14 03:42:00,
2013-10-13 22:47:00,50.5,39.2,30.36,North,0,0.0,0.0,65,0.00,,,0.00,WUHU21623XXSP,2013-10-14 03:47:00,
2013-10-13 22:52:00,50.4,39.0,30.37,North,0,0.0,0.0,65,0.00,,,0.00,WUHU21623XXSP,2013-10-14 03:52:00,
2013-10-13 22:57:00,50.2,38.8,30.36,North,0,0.0,0.0,65,0.00,,,0.00,WUHU21623XXSP,2013-10-14 03:57:00,
2013-10-13 23:02:00,49.8,38.5,30.36,North,0,0.0,0.0,65,0.00,,,0.00,WUHU21623XXSP,2013-10-14 04:02:00,
2013-10-13 23:04:00,49.8,38.5,30.36,North,0,0.0,0.0,66,0.00,,,0.00,WUHU21623XXSP,2013-10-14 04:04:00,
2013-10-13 23:07:00,49.6,38.7,30.36,North,0,0.0,0.0,66,0.00,,,0.00,WUHU21623XXSP,2013-10-14 04:07:00,
2013-10-13 23:12:00,49.3,38.4,30.36,North,0,0.0,0.0,66,0.00,,,0.00,WUHU21623XXSP,2013-10-14 04:12:00,
2013-10-13 23:17:00,48.9,38.4,30.36,North,0,0.0,0.0,67,0.00,,,0.00,WUHU21623XXSP,2013-10-14 04:17:00,
2013-10-13 23:19:00,48.9,38.8,30.36,North,0,0.0,0.0,68,0.00,,,0.00,WUHU21623XXSP,2013-10-14 04:19:00,
2013-10-13 23:24:00,48.7,38.6,30.36,North,0,0.0,0.0,68,0.00,,,0.00,WUHU21623XXSP,2013-10-14 04:24:00,
2013-10-13 23:29:00,48.6,38.4,30.36,North,0,0.0,0.0,68,0.00,,,0.00,WUHU21623XXSP,2013-10-14 04:29:00,
2013-10-13 23:34:00,48.4,38.6,30.36,North,0,0.0,0.0,69,0.00,,,0.00,WUHU21623XXSP,2013-10-14 04:34:00,
2013-10-13 23:39:00,48.2,38.5,30.36,North,0,0.0,0.0,69,0.00,,,0.00,WUHU21623XXSP,2013-10-14 04:39:00,
2013-10-13 23:44:00,48.0,38.7,30.36,North,0,0.0,0.0,70,0.00,,,0.00,WUHU21623XXSP,2013-10-14 04:44:00,
2013-10-13 23:49:00,47.8,38.5,30.36,North,0,0.0,0.0,70,0.00,,,0.00,WUHU21623XXSP,2013-10-14 04:49:00,
2013-10-13 23:54:00,47.7,38.7,30.36,North,0,0.0,0.0,71,0.00,,,0.00,WUHU21623XXSP,2013-10-14 04:54:00,
2013-10-13 23:59:00,47.5,38.7,30.36,North,0,0.0,0.0,71,0.00,,,0.00,WUHU21623XXSP,2013-10-14 04:59:00,